| time (UTC) | temp F | wind direction | speed MPH | gust MPH | rain 1hr in | rain 24hr in | rain mn in | humidity % | barometer mb |
| 20260503223524 | 60 | 246 | 5.0 | 8.0 | 0.00 | 0.00 | 0.00 | 41 | 1014.7 |
| 20260503222525 | 60 | 262 | 3.0 | 4.0 | 0.00 | 0.00 | 0.00 | 41 | 1014.7 |
| 20260503221527 | 60 | 217 | 4.0 | 6.0 | 0.00 | 0.00 | 0.00 | 41 | 1014.7 |
| 20260503220528 | 59 | 239 | 4.0 | 6.0 | 0.00 | 0.00 | 0.00 | 41 | 1014.8 |
| 20260503215523 | 60 | 218 | 6.0 | 8.0 | 0.00 | 0.00 | 0.00 | 40 | 1014.7 |
| 20260503214519 | 60 | 231 | 5.0 | 10.0 | 0.00 | 0.00 | 0.00 | 40 | 1014.8 |
| 20260503213532 | 60 | 262 | 4.0 | 7.0 | 0.00 | 0.00 | 0.00 | 40 | 1014.7 |
| 20260503212516 | 60 | 216 | 3.0 | 6.0 | 0.00 | 0.00 | 0.00 | 40 | 1014.7 |
| 20260503211517 | 60 | 227 | 6.0 | 10.0 | 0.00 | 0.00 | 0.00 | 40 | 1014.7 |
| 20260503210519 | 61 | 227 | 4.0 | 8.0 | 0.00 | 0.00 | 0.00 | 40 | 1014.7 |
| 20260503205520 | 61 | 214 | 4.0 | 9.0 | 0.00 | 0.00 | 0.00 | 40 | 1014.6 |
| 20260503204521 | 61 | 243 | 5.0 | 7.0 | 0.00 | 0.00 | 0.00 | 40 | 1014.8 |
| 20260503203523 | 60 | 190 | 7.0 | 12.0 | 0.00 | 0.00 | 0.00 | 40 | 1014.8 |
| 20260503202524 | 61 | 240 | 4.0 | 7.0 | 0.00 | 0.00 | 0.00 | 40 | 1015.0 |
| 20260503201525 | 63 | 231 | 5.0 | 10.0 | 0.00 | 0.00 | 0.00 | 40 | 1015.0 |
| 20260503200526 | 62 | 213 | 7.0 | 9.0 | 0.00 | 0.00 | 0.00 | 40 | 1015.1 |
| 20260503195558 | 60 | 183 | 5.0 | 7.0 | 0.00 | 0.00 | 0.00 | 40 | 1015.4 |
| 20260503194524 | 60 | 266 | 6.0 | 10.0 | 0.00 | 0.00 | 0.00 | 40 | 1015.6 |
| 20260503193559 | 60 | 219 | 6.0 | 11.0 | 0.00 | 0.00 | 0.00 | 39 | 1015.9 |
| 20260503192532 | 61 | 253 | 5.0 | 7.0 | 0.00 | 0.00 | 0.00 | 39 | 1015.9 |
| 20260503191516 | 62 | 211 | 5.0 | 8.0 | 0.00 | 0.00 | 0.00 | 39 | 1016.0 |
| 20260503190517 | 62 | 249 | 5.0 | 8.0 | 0.00 | 0.00 | 0.00 | 39 | 1016.1 |
| 20260503185518 | 62 | 246 | 5.0 | 8.0 | 0.00 | 0.00 | 0.00 | 39 | 1016.3 |
| 20260503184520 | 62 | 212 | 6.0 | 8.0 | 0.00 | 0.00 | 0.00 | 39 | 1016.3 |
| 20260503183526 | 63 | 234 | 6.0 | 9.0 | 0.00 | 0.00 | 0.00 | 39 | 1016.4 |
| 20260503182528 | 63 | 267 | 6.0 | 9.0 | 0.00 | 0.00 | 0.00 | 39 | 1016.4 |
| 20260503181529 | 63 | 258 | 4.0 | 8.0 | 0.00 | 0.00 | 0.00 | 40 | 1016.5 |
| 20260503180525 | 61 | 295 | 4.0 | 6.0 | 0.00 | 0.00 | 0.00 | 40 | 1016.6 |
| 20260503175527 | 62 | 280 | 7.0 | 12.0 | 0.00 | 0.00 | 0.00 | 41 | 1016.8 |
| 20260503174528 | 63 | 271 | 5.0 | 7.0 | 0.00 | 0.00 | 0.00 | 41 | 1016.8 |
| 20260503173524 | 63 | 269 | 5.0 | 8.0 | 0.00 | 0.00 | 0.00 | 41 | 1016.9 |
| 20260503172559 | 62 | 211 | 7.0 | 12.0 | 0.00 | 0.00 | 0.00 | 41 | 1017.1 |
| 20260503171532 | 63 | 256 | 4.0 | 6.0 | 0.00 | 0.00 | 0.00 | 42 | 1017.2 |
| 20260503170536 | 62 | 253 | 4.0 | 6.0 | 0.00 | 0.00 | 0.00 | 42 | 1017.3 |
| 20260503150533 | 56 | 251 | 6.0 | 9.0 | 0.00 | 0.00 | 0.00 | 46 | 1018.2 |
| 20260503130539 | 49 | 217 | 5.0 | 8.0 | 0.00 | 0.00 | 0.00 | 60 | 1018.8 |
| 20260503110523 | 34 | 158 | 1.0 | 2.0 | 0.00 | 0.00 | 0.00 | 84 | 1018.3 |
| 20260503081517 | 33 | 122 | 1.0 | 2.0 | 0.00 | 0.01 | 0.00 | 85 | 1018.3 |
| 20260503080559 | 33 | 147 | 0.0 | 2.0 | 0.00 | 0.01 | 0.00 | 85 | 1018.3 |
| 20260503072524 | 34 | 83 | 1.0 | 2.0 | 0.00 | 0.02 | 0.00 | 83 | 1018.3 |
| 20260503071525 | 34 | 93 | 1.0 | 2.0 | 0.00 | 0.02 | 0.00 | 83 | 1018.3 |
| 20260503070527 | 34 | 207 | 1.0 | 3.0 | 0.00 | 0.02 | 0.00 | 82 | 1018.3 |
| 20260503054519 | 35 | 138 | 0.0 | 3.0 | 0.00 | 0.03 | 0.00 | 77 | 1018.7 |
| 20260503053521 | 35 | 245 | 1.0 | 2.0 | 0.00 | 0.03 | 0.00 | 76 | 1018.6 |
| 20260503052542 | 36 | 171 | 1.0 | 2.0 | 0.00 | 0.04 | 0.00 | 75 | 1018.7 |
| 20260503051523 | 36 | 198 | 0.0 | 2.0 | 0.00 | 0.04 | 0.00 | 73 | 1018.7 |
| 20260503050525 | 36 | 198 | 0.0 | 3.0 | 0.00 | 0.04 | 0.00 | 72 | 1018.7 |
| 20260503045526 | 37 | 176 | 0.0 | 2.0 | 0.00 | 0.04 | 0.00 | 71 | 1018.8 |
| 20260503044527 | 37 | 0.0 | 0.0 | 0.00 | 0.04 | 0.00 | 70 | 1018.8 | |
| 20260503043523 | 38 | 180 | 0.0 | 2.0 | 0.00 | 0.05 | 0.00 | 69 | 1018.8 |
| 20260503042518 | 38 | 0.0 | 0.0 | 0.00 | 0.05 | 0.00 | 69 | 1018.8 | |
| 20260503041532 | 39 | 203 | 0.0 | 3.0 | 0.00 | 0.05 | 0.00 | 68 | 1018.9 |
| 20260503040515 | 39 | 199 | 1.0 | 2.0 | 0.00 | 0.05 | 0.00 | 68 | 1019.0 |
| 20260503035516 | 40 | 208 | 1.0 | 2.0 | 0.00 | 0.05 | 0.05 | 68 | 1019.0 |
| 20260503034518 | 40 | 207 | 1.0 | 2.0 | 0.00 | 0.05 | 0.05 | 68 | 1019.0 |
| 20260503033520 | 41 | 225 | 0.0 | 1.0 | 0.00 | 0.05 | 0.05 | 68 | 1019.0 |
| 20260503032541 | 41 | 188 | 2.0 | 3.0 | 0.00 | 0.05 | 0.05 | 68 | 1019.0 |
| 20260503031522 | 41 | 135 | 0.0 | 3.0 | 0.00 | 0.05 | 0.05 | 68 | 1019.0 |
| 20260503030523 | 41 | 76 | 1.0 | 2.0 | 0.00 | 0.05 | 0.05 | 68 | 1019.0 |
| 20260503025525 | 41 | 248 | 1.0 | 2.0 | 0.00 | 0.05 | 0.05 | 68 | 1019.2 |
| 20260503024526 | 41 | 0.0 | 1.0 | 0.00 | 0.05 | 0.05 | 68 | 1019.4 | |
| 20260503023527 | 41 | 125 | 0.0 | 2.0 | 0.00 | 0.05 | 0.05 | 68 | 1019.4 |
| 20260503022523 | 41 | 0.0 | 0.0 | 0.00 | 0.05 | 0.05 | 68 | 1019.3 | |
| 20260503021518 | 41 | 0.0 | 0.0 | 0.00 | 0.05 | 0.05 | 67 | 1019.3 | |
| 20260503020532 | 41 | 0.0 | 0.0 | 0.00 | 0.05 | 0.05 | 66 | 1019.4 | |
| 20260503015536 | 41 | 0.0 | 0.0 | 0.00 | 0.05 | 0.05 | 65 | 1019.4 | |
| 20260503014517 | 41 | 0.0 | 0.0 | 0.00 | 0.05 | 0.05 | 65 | 1019.4 | |
| 20260503013518 | 41 | 0.0 | 0.0 | 0.00 | 0.05 | 0.05 | 64 | 1019.2 | |
| 20260503012520 | 41 | 0.0 | 0.0 | 0.00 | 0.05 | 0.05 | 63 | 1019.3 | |
| 20260503011522 | 42 | 0.0 | 0.0 | 0.00 | 0.05 | 0.05 | 63 | 1019.3 | |
| 20260503010523 | 42 | 0.0 | 0.0 | 0.00 | 0.05 | 0.05 | 62 | 1019.2 | |
| 20260503005524 | 42 | 0.0 | 0.0 | 0.00 | 0.05 | 0.05 | 62 | 1019.2 | |
| 20260503004526 | 42 | 0.0 | 0.0 | 0.00 | 0.05 | 0.05 | 61 | 1019.2 | |
| 20260503003522 | 42 | 0.0 | 0.0 | 0.00 | 0.05 | 0.05 | 61 | 1019.2 | |
| 20260503002523 | 42 | 246 | 1.0 | 2.0 | 0.00 | 0.05 | 0.05 | 60 | 1019.2 |
| 20260503001524 | 42 | 241 | 1.0 | 2.0 | 0.00 | 0.05 | 0.05 | 60 | 1019.2 |
| 20260503000520 | 42 | 273 | 1.0 | 2.0 | 0.00 | 0.05 | 0.05 | 59 | 1019.2 |
| 20260502235527 | 42 | 56 | 1.0 | 4.0 | 0.00 | 0.05 | 0.05 | 59 | 1019.2 |
| 20260502234528 | 43 | 283 | 1.0 | 2.0 | 0.00 | 0.05 | 0.05 | 59 | 1019.0 |
| 20260502233529 | 43 | 357 | 1.0 | 2.0 | 0.00 | 0.05 | 0.05 | 59 | 1019.0 |
| 20260502232530 | 43 | 276 | 1.0 | 2.0 | 0.00 | 0.05 | 0.05 | 58 | 1019.0 |
| 20260502231532 | 43 | 0 | 2.0 | 4.0 | 0.00 | 0.05 | 0.05 | 58 | 1019.1 |
| 20260502230515 | 44 | 333 | 2.0 | 4.0 | 0.00 | 0.05 | 0.05 | 58 | 1019.2 |
| 20260502225516 | 44 | 344 | 2.0 | 2.0 | 0.00 | 0.05 | 0.05 | 58 | 1019.2 |
| 20260502224518 | 44 | 266 | 3.0 | 5.0 | 0.00 | 0.05 | 0.05 | 58 | 1019.2 |